Regional Weather Roundup
Issued by NWS Northern Indiana

Home | Current Version | Previous Version | Graphics & Text | Print | Product List | Glossary On
Versions: 1 2 3 4 5 6 7 8 9 10 11 12 13 14 15 16 17 18 19 20 21 22 23 24 25 26 27 28 29 30 31 32 33 34 35 36 37 38 39 40 41 42 43 44 45 46 47 48 49 50
000
ASUS43 KIWX 280700
RWRIWX

KIWX WEATHER ROUNDUP
NATIONAL WEATHER SERVICE NORTHERN INDIANA
300 AM EDT SAT MAR 28 2015

NOTE: "FAIR" INDICATES FEW OR NO CLOUDS BELOW 12,000 FEET WITH NO
SIGNIFICANT WEATHER AND/OR OBSTRUCTIONS TO VISIBILITY.

* THESE STATIONS ARE NOT UNDER NWS QUALITY CONTROL. THEY ALSO MAY NOT
  REPORT WEATHER SUCH AS PRECIPITATION OR FOG.

INZ001>027-280800-
NORTHERN INDIANA

CITY           SKY/WX    TMP DP  RH WIND       PRES   REMARKS
GARY*          CLEAR     27   9  47 N12       30.22S WCI  17
KNOX*            N/A     18   5  57 N6        30.19S WCI   9
SOUTH BEND     CLEAR     16   8  71 N6        30.20R WCI   7
GOSHEN         CLEAR     18   9  68 N7        30.17S WCI   9
WARSAW*        CLEAR     18  12  79 N3        30.17S
ANGOLA*        CLEAR     18   7  62 N5        30.15S WCI  11
FORT WAYNE     CLEAR     19  13  77 N7        30.16S WCI  10
PERU/GRISSOM   CLEAR     19  12  75 N7        30.16R WCI  10

$$
INZ028>050-280800-
CENTRAL INDIANA

CITY           SKY/WX    TMP DP  RH WIND       PRES   REMARKS
LAFAYETTE      CLEAR     18  13  80 NW3       30.21S
KOKOMO*          N/A     19  10  68 N8        30.17S WCI   9
MUNCIE*        CLEAR     20  14  77 NW6       30.15S WCI  12
INDIANAPOLIS   MOCLDY    21  12  68 N10       30.16S WCI  10

$$
MIZ043>046-050>051-056>058-064>065-071>073-077>080-280800-
SOUTHWEST LOWER MICHIGAN

CITY           SKY/WX    TMP DP  RH WIND       PRES   REMARKS
BATTLE CREEK   CLEAR     17   5  59 N8        30.18R WCI   7
BENTON HARBOR  CLEAR     17   5  59 VRB3      30.21S
COLDWATER*     CLEAR     17   7  63 N3        30.17R
HILLSDALE*     CLEAR     17   7  66 NE7       30.15R WCI   7
HOLLAND        CLEAR     17   2  51 NE6       30.22S WCI   9
GRAND RAPIDS   FAIR      15   2  56 N3        30.21R
KALAMAZOO      CLEAR     18   3  52 NE6       30.19R WCI  10
STURGIS*       CLEAR     18   7  62 CALM      30.17R
THREE RIVERS*  FAIR      19   5  54 NE5       30.19R WCI  12

$$
OHZ001>008-015>018-024>025-280800-
NORTHWEST OHIO

CITY           SKY/WX    TMP DP  RH WIND       PRES   REMARKS
DEFIANCE       CLEAR     20  11  68 NE8       30.17R WCI  10
FINDLAY        CLOUDY    20  11  68 NE12      30.14R WCI   8
TOLEDO EXPRESS CLEAR     17   7  64 N6        30.17R WCI   9
TOLEDO METCALF CLEAR     18   5  57 N12       30.17S WCI   5
LIMA           PTCLDY    22  14  71 NE7       30.13R WCI  13

$$
AND FOR LAKE MICHIGAN COASTAL AND OPEN LAKE BUOY OBSERVATIONS

STATION/POSITION TEMP    WIND        PRES    VSBY  WAVE
                 AIR SEA DIR/SP/G                  HT/PER
                 (F)     (DEG/KT/KT) (MB)    (MI)  (FT/S)
CALUMET HARBOR    26     360/ 10/ 17 1022.0S
MICHIGAN CITY     24     360/ 16/ 19   N/A
BURNS HARBOR      26      10/ 12/ 19 1023.4R
SAINT JOSEPH      20      30/  4/ 10 1023.7S

$$
&&



USA.gov is the U.S. government's official web portal to all federal, state and local government web resources and services.